Location: Binningen
(47.7924°N, 8.7261°E)
Time: 04:43:00
(UTC+00:00)

Cosmos 2297 Rocket - Pass Details

Date: 17 May 2021
Orbit: 838 x 845 km, 71.0° (Epoch: 14 June)

Event Time Altitude Azimuth Distance (km) Brightness Sun altitude
Rises 23:12:31 0° 335° (NNW) 3,415 6.5 -22.6°
Reaches altitude 10° 23:15:04 10° 341° (NNW) 2,476 5.6 -22.6°
Maximum altitude 23:20:34 49° 56° (NE) 1,089 2.9 -22.7°
Enters shadow 23:23:39 25° 118° (ESE) 1,656 3.5 -22.7°
